FW1241 Weather Reports


Display with metric or nautical units.
time (UTC)temp
F
wind
direction
speed
MPH
gust
MPH
rain 1hr
in
rain 24hr
in
rain mn
in
humidity
%
barometer
mb
20260903100603 61 238 0.0 0.0 0.00 0.00 0.00 82 1013.1
20260903095604 61 238 0.0 0.0 0.00 0.00 0.00 81 1013.1
20260903094604 61 238 0.0 0.0 0.00 0.00 0.00 80 1013.2
20260903094103 61 238 0.0 0.0 0.00 0.00 0.00 80 1013.2
20260903093604 61 238 0.0 0.0 0.00 0.00 0.00 80 1013.2
20260903093104 61 238 0.0 0.0 0.00 0.00 0.00 80 1013.2
20260903092104 61 238 0.0 0.0 0.00 0.00 0.00 80 1013.2
20260903091604 61 238 0.0 0.0 0.00 0.00 0.00 80 1013.3
20260903091104 61 238 0.0 0.0 0.00 0.00 0.00 79 1013.3
20260903085604 62 238 0.0 0.0 0.00 0.00 0.00 77 1013.4
20260903085104 62 288 0.0 0.0 0.00 0.00 0.00 77 1013.4
20260903084104 63 288 0.0 0.0 0.00 0.00 0.00 75 1013.3
20260903083103 64 288 0.0 0.0 0.00 0.00 0.00 74 1013.3
20260903082604 64 288 0.0 0.0 0.00 0.00 0.00 73 1013.3
20260903082103 65 288 0.0 0.0 0.00 0.00 0.00 72 1013.3
20260903075604 67 288 0.0 0.0 0.00 0.00 0.00 64 1013.3
20260903075104 67 288 0.0 0.0 0.00 0.00 0.00 63 1013.2
20260903073604 67 288 0.0 1.0 0.00 0.00 0.00 64 1013.2
20260903071603 66 297 0.0 1.0 0.00 0.00 0.00 67 1013.1
20260903070103 65 315 0.0 0.0 0.00 0.00 0.00 70 1013.1
20260903065604 65 315 0.0 0.0 0.00 0.00 0.00 71 1013.0
20260903063604 65 314 0.0 0.0 0.00 0.00 0.00 74 1013.0
20260903062603 65 315 0.0 0.0 0.00 0.00 0.00 74 1013.0
20260903061604 66 315 0.0 0.0 0.00 0.00 0.00 75 1013.0
20260903055104 67 315 0.0 0.0 0.00 0.00 0.00 69 1013.0
20260903054104 67 315 0.0 0.0 0.00 0.00 0.00 69 1013.1
20260903053604 67 314 0.0 0.0 0.00 0.00 0.00 67 1013.1
20260903053104 67 315 0.0 0.0 0.00 0.00 0.00 66 1013.2
20260903052604 68 315 0.0 0.0 0.00 0.00 0.00 67 1013.2
20260903052104 68 315 0.0 0.0 0.00 0.00 0.00 67 1013.2
20260903045603 68 314 0.0 0.0 0.00 0.00 0.00 66 1013.3
20260903045103 68 315 0.0 0.0 0.00 0.00 0.00 67 1013.3
20260903044604 68 314 0.0 0.0 0.00 0.00 0.00 65 1013.3
20260903044104 68 315 0.0 0.0 0.00 0.00 0.00 65 1013.3
20260903043604 68 315 0.0 0.0 0.00 0.00 0.00 64 1013.2
20260903043103 68 315 0.0 0.0 0.00 0.00 0.00 62 1013.2
20260903042604 69 314 0.0 0.0 0.00 0.00 0.00 62 1013.2
20260903042104 69 315 0.0 0.0 0.00 0.00 0.00 61 1013.2
20260903041104 69 315 0.0 0.0 0.00 0.00 0.00 60 1013.1
20260903035603 70 315 0.0 0.0 0.00 0.00 0.00 58 1012.9
20260903033604 72 315 0.0 0.0 0.00 0.00 0.00 54 1012.7
20260903033104 72 315 0.0 0.0 0.00 0.00 0.00 55 1012.6
20260903032604 72 315 0.0 0.0 0.00 0.00 0.00 54 1012.6
20260903032104 73 315 0.0 0.0 0.00 0.00 0.00 54 1012.5
20260903025604 74 315 0.0 0.0 0.00 0.00 0.00 50 1012.4
20260903024603 75 315 0.0 0.0 0.00 0.00 0.00 48 1012.4
20260903024104 76 315 0.0 0.0 0.00 0.00 0.00 47 1012.4
20260903023103 77 315 0.0 0.0 0.00 0.00 0.00 45 1012.5
20260903022104 77 315 0.0 0.0 0.00 0.00 0.00 46 1012.5
20260903021604 78 315 0.0 0.0 0.00 0.00 0.00 44 1012.5
20260903020104 79 319 0.0 1.0 0.00 0.00 0.00 42 1012.6
20260903015104 80 336 0.0 1.0 0.00 0.00 0.00 41 1012.6
20260903014104 80 305 0.0 1.0 0.00 0.00 0.00 40 1012.6
20260903013604 81 300 0.0 1.0 0.00 0.00 0.00 40 1012.7
20260903012604 82 309 0.0 1.0 0.00 0.00 0.00 39 1012.7
20260903011603 82 300 1.0 3.0 0.00 0.00 0.00 37 1012.7
20260903011103 83 310 0.0 2.0 0.00 0.00 0.00 37 1012.8
20260903010604 84 309 0.0 2.0 0.00 0.00 0.00 36 1012.8
20260903005604 83 308 1.0 3.0 0.00 0.00 0.00 36 1012.8
20260903005104 83 273 1.0 2.0 0.00 0.00 0.00 36 1012.8
20260903004603 83 294 1.0 3.0 0.00 0.00 0.00 35 1012.8
20260903004104 84 296 1.0 3.0 0.00 0.00 0.00 35 1012.9
20260903003603 84 294 1.0 3.0 0.00 0.00 0.00 35 1013.0
20260903002104 84 302 1.0 3.0 0.00 0.00 0.00 35 1013.0
20260903001604 84 294 0.0 2.0 0.00 0.00 0.00 35 1013.0
20260903001104 84 291 2.0 3.0 0.00 0.00 0.00 35 1013.1
20260903000104 84 326 1.0 3.0 0.00 0.00 0.00 35 1013.2
20260902235606 84 304 0.0 3.0 0.00 0.00 0.00 36 1013.2
20260902235104 84 296 1.0 3.0 0.00 0.00 0.00 37 1013.2
20260902232604 84 3 1.0 3.0 0.00 0.00 0.00 38 1013.4
20260902232104 83 306 0.0 2.0 0.00 0.00 0.00 37 1013.4
20260902231604 83 301 1.0 3.0 0.00 0.00 0.00 38 1013.5
20260902231104 83 281 1.0 3.0 0.00 0.00 0.00 37 1013.7
20260902230104 83 321 1.0 3.0 0.00 0.00 0.00 38 1013.8
20260902225604 83 318 1.0 3.0 0.00 0.00 0.00 37 1013.9
20260902224603 83 292 2.0 5.0 0.00 0.00 0.00 38 1014.0
20260902222604 83 300 2.0 3.0 0.00 0.00 0.00 37 1014.3
20260902222104 83 300 0.0 3.0 0.00 0.00 0.00 38 1014.3
20260902220104 82 226 1.0 3.0 0.00 0.00 0.00 38 1014.5
20260902215604 82 301 1.0 3.0 0.00 0.00 0.00 39 1014.6
20260902215104 82 302 2.0 3.0 0.00 0.00 0.00 40 1014.7
20260902214604 82 263 1.0 3.0 0.00 0.00 0.00 39 1014.7
20260902214103 82 291 0.0 1.0 0.00 0.00 0.00 41 1014.8
20260902213104 81 298 1.0 3.0 0.00 0.00 0.00 40 1015.0
20260902212604 81 286 1.0 6.0 0.00 0.00 0.00 40 1015.1
20260902210104 80 290 0.0 3.0 0.00 0.00 0.00 43 1015.2
20260902205104 80 81 0.0 2.0 0.00 0.00 0.00 41 1015.3
20260902204604 80 309 1.0 3.0 0.00 0.00 0.00 42 1015.4
20260902202603 79 263 0.0 1.0 0.00 0.00 0.00 43 1015.6
20260902201604 80 299 1.0 3.0 0.00 0.00 0.00 44 1015.8
20260902201104 80 315 0.0 3.0 0.00 0.00 0.00 45 1015.9
20260902195104 79 287 0.0 2.0 0.00 0.00 0.00 45 1016.0
20260902193104 78 331 0.0 1.0 0.00 0.00 0.00 47 1016.3
20260902191603 77 319 1.0 3.0 0.00 0.00 0.00 47 1016.4
20260902190104 77 292 0.0 3.0 0.00 0.00 0.00 49 1016.6
20260902185603 77 25 1.0 3.0 0.00 0.00 0.00 50 1016.6
20260902184604 76 73 0.0 3.0 0.00 0.00 0.00 50 1016.7
20260902183104 75 157 0.0 5.0 0.00 0.00 0.00 50 1016.9
20260902182603 75 229 0.0 3.0 0.00 0.00 0.00 50 1017.0
20260902181104 74 198 0.0 3.0 0.00 0.00 0.00 53 1017.0
20260902180604 74 166 1.0 3.0 0.00 0.00 0.00 52 1017.0
20260902175104 73 188 0.0 3.0 0.00 0.00 0.00 53 1017.2
20260902174604 73 202 0.0 3.0 0.00 0.00 0.00 54 1017.2
20260902174104 72 176 0.0 3.0 0.00 0.00 0.00 54 1017.2
20260902173603 72 185 1.0 5.0 0.00 0.00 0.00 54 1017.3
20260902172604 72 168 2.0 5.0 0.00 0.00 0.00 54 1017.3
20260902171604 72 113 0.0 2.0 0.00 0.00 0.00 57 1017.4
20260902170604 71 121 1.0 5.0 0.00 0.00 0.00 56 1017.5
20260902165104 70 156 1.0 3.0 0.00 0.00 0.00 58 1017.5
20260902164604 70 117 1.0 3.0 0.00 0.00 0.00 59 1017.4
20260902164104 69 182 0.0 2.0 0.00 0.00 0.00 62 1017.4
20260902163604 69 86 0.0 3.0 0.00 0.00 0.00 60 1017.5
20260902161104 67 100 0.0 1.0 0.00 0.00 0.00 63 1017.5
20260902155603 67 101 0.0 2.0 0.00 0.00 0.00 64 1017.5
20260902155104 66 188 1.0 3.0 0.00 0.00 0.00 66 1017.5
20260902154104 65 169 0.0 1.0 0.00 0.00 0.00 68 1017.4
20260902153604 65 196 1.0 2.0 0.00 0.00 0.00 67 1017.3
20260902153103 65 187 1.0 2.0 0.00 0.00 0.00 69 1017.2
20260902152604 63 180 0.0 0.0 0.00 0.00 0.00 72 1017.3
20260902152104 63 107 0.0 1.0 0.00 0.00 0.00 72 1017.2
20260902151604 62 103 0.0 1.0 0.00 0.00 0.00 73 1017.2
20260902150604 61 178 0.0 3.0 0.00 0.00 0.00 77 1017.0
20260902150104 60 104 0.0 1.0 0.00 0.00 0.00 80 1017.1
20260902145604 59 122 0.0 1.0 0.00 0.00 0.00 82 1017.1
20260902145103 58 120 0.0 1.0 0.00 0.00 0.00 83 1017.0
20260902144603 58 120 0.0 0.0 0.00 0.00 0.00 84 1016.9
20260902144103 57 120 0.0 0.0 0.00 0.00 0.00 85 1016.9
20260902143604 56 183 0.0 0.0 0.00 0.00 0.00 86 1016.9
20260902143103 56 191 0.0 0.0 0.00 0.00 0.00 86 1016.8
20260902141604 55 186 0.0 1.0 0.00 0.00 0.00 87 1016.5
20260902140604 55 200 0.0 1.0 0.00 0.00 0.00 87 1016.4
20260902134604 55 142 0.0 0.0 0.00 0.00 0.00 87 1016.4
20260902134103 55 142 0.0 0.0 0.00 0.00 0.00 87 1016.4
20260902130605 55 145 0.0 2.0 0.00 0.00 0.00 87 1016.3
20260902125605 55 110 0.0 1.0 0.00 0.00 0.00 88 1016.3
20260902123604 55 150 0.0 1.0 0.00 0.00 0.00 88 1016.2
20260902123105 55 150 0.0 0.0 0.00 0.00 0.00 88 1016.2
20260902120104 55 131 0.0 1.0 0.00 0.00 0.00 87 1015.9
20260902115605 55 128 0.0 1.0 0.00 0.00 0.00 87 1015.8
20260902115104 55 167 0.0 0.0 0.00 0.00 0.00 86 1015.8
20260902112605 56 194 0.0 0.0 0.00 0.00 0.00 85 1015.5
20260902112104 56 195 0.0 0.0 0.00 0.00 0.00 85 1015.4
20260902111605 56 193 0.0 0.0 0.00 0.00 0.00 85 1015.3
20260902111104 56 190 0.0 0.0 0.00 0.00 0.00 84 1015.2
20260902110604 56 191 0.0 0.0 0.00 0.00 0.00 84 1015.1
20260902110105 57 280 0.0 0.0 0.00 0.00 0.00 84 1015.1
20260902105605 57 280 0.0 0.0 0.00 0.00 0.00 84 1015.0
20260902104605 57 279 0.0 0.0 0.00 0.00 0.00 82 1014.9
20260902103605 57 279 0.0 0.0 0.00 0.00 0.00 81 1014.8
20260902102605 58 279 0.0 0.0 0.00 0.00 0.00 80 1014.8
20260902101605 58 279 0.0 0.0 0.00 0.00 0.00 79 1014.8